STARLINK-35923, 66641

Orbit data source: Space-Track

STARLINK-35923, 66641 is a payload satellite owned by SpaceX/Seattle (US) in LEO that was launched on Sun, 23 Nov 2025 UTC via an FALCON 9 launch vehicle from the Air Force Western Test Range (AFWTR). Payload-class satellites include a variety of spacecraft equipped with specific instruments for various scientific and technological missions. These include communications satellites like Starlink; space stations such as the ISS; scientific satellites like the Hubble; Earth observation satellites from companies like Planet Labs, Umbra, and HawkEye 360; GPS; miniature CubeSats for education and research; and military/defense satellites.

Loading next visibility...
Identifier
66641, 2025-271AA
Orbit
LEO
Country
Flag of USUS
Related business
Manufacturer
SpaceX/Seattle
Mission
Operational Commercial Communications
Bus & Motor
STARLINK V2MO, Unknown motor
Mass
575 kg wet, ~530 kg dry
Launch date (UTC)
2025-11-23 (7 months ago)
Launch vehicle
FALCON 9
Launch site
Air Force Western Test Range (AFWTR)
Object type
Payload
Rocket body
Debris
Shape & HBR
Box + 2 Pan, 17.7 m
Radar Cross Section
36.964 m², Large (>1 m²)

Expand to show TLE details & history
Last TLE update: 3 days ago

TLE from 3 days ago
0 STARLINK-35923
1 66641U 25271AA  26171.31153088  .00015489  00000-0  53364-3 0  9997
2 66641  53.1609  23.6080 0001870  79.9775 280.1437 15.30221215 33270
Epoch: 2026-06-20T07:28Z
TLE epoch observation values (Epoch: 2026-06-20T07:28:36.268Z)
Latitude
0.00002°
Longitude
2.92893°
Altitude
475.826 km
Speed
7.629 km/s
True Right ascension
01h 34m 25s
True Declination
0° 00' 00"
Sunlit
Object was in daylight at epoch
Visualization orbit readout
Latitude
Unknown
Longitude
Unknown
Altitude
Unknown
Speed
Unknown
Apparent Right ascension
Unknown
Apparent Declination
Unknown
Sunlit
N/A
Visualization observer readout
Local Sidereal Time
07:32:03
Azimuth
Unknown
Elevation
Unknown
Doppler factor
Unknown
Orbital elements
Apogee altitude
476.69 km
Perigee altitude
474.126 km
Semi-major axis
6,853.545 km
Eccentricity
0.00019
Inclination
53.1609°
RAAN
23.608°
Arg. of periapsis
79.9775°
True anomaly
280.12261°
Mean anomaly
280.1437°
Eccentric anomaly
280.13315°
Mean motion
3.82534 °/min
Orbital period
94.11 mins
BSTAR
0.00053364
Loading maneuver chart data...
Computing Atmospheric mass density...
Loading historical data...
Loading historical data...
Loading historical data...
Loading historical data...
Loading historical data...
Loading historical data...
Loading historical data...

Documentation

Showing up to 5 results
|